| time (UTC) | temp C | wind direction | speed KPH | gust KPH | rain 1hr cm | rain 24hr cm | rain mn cm | humidity % | barometer mb |
| 20260507094504 | 15 | 30 | 4.8 | 0.0 | 0.00 | 0.00 | 0.00 | 62 | 1012.0 |
| 20260507091504 | 12 | 0 | 1.6 | 0.0 | 0.00 | 0.00 | 0.00 | 71 | 1012.0 |
| 20260507084504 | 12 | 0 | 3.2 | 0.0 | 0.00 | 0.00 | 0.00 | 71 | 1012.0 |
| 20260507083004 | 12 | 0 | 3.2 | 0.0 | 0.00 | 0.00 | 0.00 | 71 | 1012.0 |
| 20260507081504 | 12 | 0 | 3.2 | 0.0 | 0.00 | 0.00 | 0.00 | 71 | 1012.0 |
| 20260507074504 | 12 | 90 | 4.8 | 0.0 | 0.00 | 0.00 | 0.00 | 66 | 1012.0 |
| 20260507073004 | 12 | 0 | 3.2 | 0.0 | 0.00 | 0.00 | 0.00 | 71 | 1011.0 |
| 20260507071503 | 12 | 0 | 3.2 | 0.0 | 0.00 | 0.00 | 0.00 | 71 | 1011.0 |
| 20260507063004 | 11 | 330 | 4.8 | 0.0 | 0.00 | 0.00 | 0.00 | 76 | 1011.0 |
| 20260507061504 | 11 | 330 | 4.8 | 0.0 | 0.00 | 0.00 | 0.00 | 76 | 1011.0 |
| 20260507060004 | 10 | 340 | 4.8 | 0.0 | 0.00 | 0.00 | 0.00 | 81 | 1011.0 |
| 20260507054504 | 10 | 340 | 4.8 | 0.0 | 0.00 | 0.00 | 0.00 | 81 | 1011.0 |
| 20260507053005 | 10 | 0 | 3.2 | 0.0 | 0.00 | 0.00 | 0.00 | 76 | 1011.0 |
| 20260507051504 | 10 | 0 | 3.2 | 0.0 | 0.00 | 0.00 | 0.00 | 76 | 1011.0 |
| 20260507044504 | 10 | 340 | 11.3 | 0.0 | 0.00 | 0.00 | 0.00 | 76 | 1011.0 |
| 20260507034504 | 10 | 350 | 11.3 | 0.0 | 0.00 | 0.00 | 0.00 | 76 | 1011.0 |
| 20260507033004 | 11 | 350 | 9.7 | 0.0 | 0.00 | 0.00 | 0.00 | 66 | 1011.0 |
| 20260507030004 | 11 | 360 | 8.0 | 0.0 | 0.00 | 0.00 | 0.00 | 66 | 1011.0 |
| 20260507024503 | 11 | 360 | 8.0 | 0.0 | 0.00 | 0.00 | 0.00 | 66 | 1011.0 |
| 20260507023004 | 11 | 340 | 9.7 | 0.0 | 0.00 | 0.00 | 0.00 | 66 | 1011.0 |
| 20260507021504 | 11 | 340 | 9.7 | 0.0 | 0.00 | 0.00 | 0.00 | 66 | 1011.0 |
| 20260507020005 | 10 | 0 | 3.2 | 0.0 | 0.00 | 0.00 | 0.00 | 66 | 1011.0 |
| 20260507011503 | 10 | 0 | 1.6 | 0.0 | 0.00 | 0.00 | 0.00 | 71 | 1011.0 |
| 20260507010004 | 10 | 20 | 1.6 | 0.0 | 0.00 | 0.00 | 0.00 | 71 | 1011.0 |
| 20260507004503 | 10 | 20 | 1.6 | 0.0 | 0.00 | 0.00 | 0.00 | 71 | 1011.0 |
| 20260507003005 | 11 | 350 | 8.0 | 0.0 | 0.00 | 0.00 | 0.00 | 66 | 1011.0 |
| 20260507001504 | 11 | 350 | 8.0 | 0.0 | 0.00 | 0.00 | 0.00 | 66 | 1011.0 |
| 20260506234504 | 11 | 350 | 4.8 | 0.0 | 0.00 | 0.00 | 0.00 | 62 | 1011.0 |
| 20260506233005 | 11 | 340 | 4.8 | 0.0 | 0.00 | 0.00 | 0.00 | 62 | 1010.0 |
| 20260506230004 | 12 | 350 | 8.0 | 0.0 | 0.00 | 0.00 | 0.00 | 54 | 1010.0 |
| 20260506224503 | 12 | 350 | 8.0 | 0.0 | 0.00 | 0.00 | 0.00 | 54 | 1010.0 |
| 20260506221504 | 12 | 350 | 3.2 | 0.0 | 0.00 | 0.00 | 0.00 | 43 | 1010.0 |
| 20260506213004 | 12 | 50 | 4.8 | 0.0 | 0.00 | 0.00 | 0.00 | 40 | 1010.0 |
| 20260506211504 | 12 | 50 | 4.8 | 0.0 | 0.00 | 0.00 | 0.00 | 40 | 1010.0 |
| 20260506210005 | 13 | 40 | 3.2 | 0.0 | 0.00 | 0.00 | 0.00 | 44 | 1010.0 |
| 20260506204504 | 13 | 40 | 3.2 | 0.0 | 0.00 | 0.00 | 0.00 | 44 | 1010.0 |
| 20260506201504 | 16 | 0 | 3.2 | 0.0 | 0.00 | 0.00 | 0.00 | 33 | 1010.0 |
| 20260506194504 | 17 | 190 | 4.8 | 0.0 | 0.00 | 0.00 | 0.00 | 27 | 1010.0 |
| 20260506191504 | 18 | 0 | 1.6 | 0.0 | 0.00 | 0.00 | 0.00 | 24 | 1010.0 |
| 20260506184503 | 18 | 0 | 3.2 | 0.0 | 0.00 | 0.00 | 0.00 | 24 | 1010.0 |
| 20260506183005 | 20 | 0 | 4.8 | 0.0 | 0.00 | 0.00 | 0.00 | 26 | 1010.0 |
| 20260506180005 | 20 | 360 | 4.8 | 0.0 | 0.00 | 0.00 | 0.00 | 26 | 1010.0 |
| 20260506173004 | 20 | 250 | 4.8 | 0.0 | 0.00 | 0.00 | 0.00 | 22 | 1010.0 |
| 20260506171504 | 20 | 250 | 4.8 | 0.0 | 0.00 | 0.00 | 0.00 | 22 | 1010.0 |
| 20260506170004 | 20 | 200 | 4.8 | 0.0 | 0.00 | 0.00 | 0.00 | 26 | 1010.0 |
| 20260506163005 | 20 | 190 | 8.0 | 0.0 | 0.00 | 0.00 | 0.00 | 26 | 1011.0 |
| 20260506161504 | 20 | 190 | 8.0 | 0.0 | 0.00 | 0.00 | 0.00 | 26 | 1011.0 |
| 20260506154504 | 20 | 250 | 3.2 | 0.0 | 0.00 | 0.00 | 0.00 | 30 | 1011.0 |
| 20260506153004 | 18 | 230 | 8.0 | 0.0 | 0.00 | 0.00 | 0.00 | 29 | 1011.0 |
| 20260506151504 | 18 | 230 | 8.0 | 0.0 | 0.00 | 0.00 | 0.00 | 29 | 1011.0 |
| 20260506144504 | 18 | 60 | 4.8 | 0.0 | 0.00 | 0.00 | 0.00 | 34 | 1012.0 |
| 20260506143005 | 18 | 200 | 9.7 | 0.0 | 0.00 | 0.00 | 0.00 | 29 | 1012.0 |
| 20260506141504 | 18 | 200 | 9.7 | 0.0 | 0.00 | 0.00 | 0.00 | 29 | 1012.0 |
| 20260506140004 | 18 | 210 | 8.0 | 0.0 | 0.00 | 0.00 | 0.00 | 32 | 1012.0 |
| 20260506134504 | 18 | 210 | 8.0 | 0.0 | 0.00 | 0.00 | 0.00 | 32 | 1012.0 |
| 20260506133004 | 17 | 120 | 3.2 | 0.0 | 0.00 | 0.00 | 0.00 | 36 | 1013.0 |
| 20260506131504 | 17 | 120 | 3.2 | 0.0 | 0.00 | 0.00 | 0.00 | 36 | 1013.0 |
| 20260506130005 | 17 | 180 | 8.0 | 0.0 | 0.00 | 0.00 | 0.00 | 39 | 1013.0 |
| 20260506121504 | 17 | 60 | 4.8 | 0.0 | 0.00 | 0.00 | 0.00 | 39 | 1013.0 |
| 20260506120005 | 16 | 260 | 9.7 | 0.0 | 0.00 | 0.00 | 0.00 | 44 | 1013.0 |
| 20260506113004 | 15 | 10 | 9.7 | 0.0 | 0.00 | 0.00 | 0.00 | 44 | 1013.0 |
| 20260506104504 | 16 | 20 | 8.0 | 0.0 | 0.00 | 0.00 | 0.00 | 44 | 1014.0 |
| 20260506103004 | 15 | 20 | 4.8 | 0.0 | 0.00 | 0.00 | 0.00 | 47 | 1014.0 |